User: anonymous   Login
Location: Unspecified
(0.0000°N, 0.0000°E)
Time: 21:59:38
(UTC+00:00)
Language:

BEESAT - Orbit

View from above orbital plane
View from above orbital plane
View from above satellite
View from above satellite

Ground track
Ground track

The orbit data is extracted from the following two-line orbital elements,

1 35933U 09051C   17082.91447377 +.00000184 +00000-0 +52574-4 0  9998
2 35933 098.4848 221.2179 0006442 156.5036 203.6456 14.56098274397935
Epoch (UTC): 23 March 2017 21:56:50
Eccentricity: 0.0006442
inclination: 98.4848°
perigee height: 701 km
apogee height: 710 km
right ascension of ascending node: 221.2179°
argument of perigee: 156.5036°
revolutions per day: 14.56098274
mean anomaly at epoch: 203.6456°
orbit number at epoch: 39793

The dashed part of the orbit path shows where the satellite is in the earth's shadow,  

DLR